| time (UTC) | temp F | wind direction | speed knots | gust knots | rain 1hr in | rain 24hr in | rain mn in | humidity % | barometer mb |
| 20260506031535 | 44 | 360 | 0.9 | 5.2 | 0.00 | 0.00 | 0.00 | 81 | 1014.2 |
| 20260506031011 | 44 | 360 | 0.9 | 5.2 | 0.00 | 0.00 | 0.00 | 80 | 1014.1 |
| 20260506030511 | 44 | 360 | 1.7 | 5.2 | 0.00 | 0.00 | 0.00 | 80 | 1014.2 |
| 20260506030051 | 44 | 360 | 1.7 | 5.2 | 0.00 | 0.00 | 0.00 | 80 | 1014.2 |
| 20260506025510 | 44 | 360 | 0.9 | 5.2 | 0.00 | 0.00 | 0.00 | 79 | 1014.2 |
| 20260506025008 | 44 | 360 | 1.7 | 5.2 | 0.00 | 0.00 | 0.00 | 79 | 1014.2 |
| 20260506024530 | 44 | 360 | 2.6 | 5.2 | 0.00 | 0.00 | 0.00 | 79 | 1014.2 |
| 20260506024008 | 44 | 360 | 0.9 | 3.5 | 0.00 | 0.00 | 0.00 | 79 | 1014.2 |
| 20260506023513 | 44 | 360 | 1.7 | 4.3 | 0.00 | 0.00 | 0.00 | 79 | 1014.0 |
| 20260506023028 | 44 | 360 | 0.9 | 4.3 | 0.00 | 0.00 | 0.00 | 78 | 1014.2 |
| 20260506022510 | 44 | 360 | 0.9 | 4.3 | 0.00 | 0.00 | 0.00 | 78 | 1014.0 |
| 20260506022011 | 44 | 360 | 1.7 | 4.3 | 0.00 | 0.00 | 0.00 | 78 | 1014.0 |
| 20260506021531 | 44 | 360 | 0.9 | 4.3 | 0.00 | 0.00 | 0.00 | 78 | 1013.9 |
| 20260506021009 | 45 | 360 | 2.6 | 4.3 | 0.00 | 0.00 | 0.00 | 78 | 1014.0 |
| 20260506020512 | 45 | 360 | 1.7 | 4.3 | 0.00 | 0.00 | 0.00 | 77 | 1014.0 |
| 20260506020028 | 45 | 0 | 0.9 | 3.5 | 0.00 | 0.00 | 0.00 | 77 | 1014.2 |
| 20260506015514 | 45 | 360 | 0.9 | 5.2 | 0.00 | 0.00 | 0.00 | 77 | 1014.2 |
| 20260506015011 | 45 | 360 | 2.6 | 5.2 | 0.00 | 0.00 | 0.00 | 77 | 1014.2 |
| 20260506014529 | 45 | 360 | 1.7 | 7.0 | 0.00 | 0.00 | 0.00 | 77 | 1014.1 |
| 20260506014010 | 45 | 360 | 1.7 | 7.0 | 0.00 | 0.00 | 0.00 | 77 | 1014.1 |
| 20260506013510 | 45 | 360 | 2.6 | 7.0 | 0.00 | 0.00 | 0.00 | 76 | 1014.1 |
| 20260506013031 | 45 | 360 | 2.6 | 7.0 | 0.00 | 0.00 | 0.00 | 76 | 1014.2 |
| 20260506012507 | 45 | 360 | 2.6 | 7.8 | 0.00 | 0.00 | 0.00 | 76 | 1014.3 |
| 20260506012013 | 45 | 360 | 1.7 | 7.8 | 0.00 | 0.00 | 0.00 | 76 | 1014.2 |
| 20260506011537 | 45 | 360 | 3.5 | 7.8 | 0.00 | 0.00 | 0.00 | 76 | 1014.2 |
| 20260506011013 | 45 | 360 | 2.6 | 7.8 | 0.00 | 0.00 | 0.00 | 76 | 1014.2 |
| 20260506010509 | 45 | 360 | 3.5 | 7.8 | 0.00 | 0.00 | 0.00 | 75 | 1014.2 |
| 20260506010027 | 45 | 360 | 2.6 | 10.4 | 0.00 | 0.00 | 0.00 | 75 | 1014.3 |
| 20260506005509 | 45 | 360 | 4.3 | 10.4 | 0.00 | 0.00 | 0.00 | 75 | 1014.3 |
| 20260506005011 | 45 | 360 | 3.5 | 9.6 | 0.00 | 0.00 | 0.00 | 75 | 1014.3 |
| 20260506004543 | 45 | 360 | 4.3 | 9.6 | 0.00 | 0.00 | 0.00 | 75 | 1014.4 |
| 20260506004010 | 45 | 360 | 3.5 | 8.7 | 0.00 | 0.00 | 0.00 | 75 | 1014.3 |
| 20260506003510 | 46 | 360 | 3.5 | 9.6 | 0.00 | 0.00 | 0.00 | 75 | 1014.2 |
| 20260506003036 | 46 | 360 | 3.5 | 9.6 | 0.00 | 0.00 | 0.00 | 75 | 1014.3 |
| 20260506002511 | 46 | 360 | 4.3 | 9.6 | 0.00 | 0.00 | 0.00 | 76 | 1014.3 |
| 20260506002014 | 46 | 360 | 3.5 | 8.7 | 0.00 | 0.00 | 0.00 | 77 | 1014.3 |
| 20260506001531 | 46 | 360 | 2.6 | 9.6 | 0.00 | 0.00 | 0.00 | 77 | 1014.5 |
| 20260506001009 | 46 | 360 | 2.6 | 9.6 | 0.00 | 0.00 | 0.00 | 77 | 1014.4 |
| 20260506000516 | 46 | 360 | 4.3 | 10.4 | 0.00 | 0.00 | 0.00 | 77 | 1014.4 |
| 20260506000028 | 46 | 360 | 3.5 | 10.4 | 0.00 | 0.00 | 0.00 | 78 | 1014.3 |
| 20260505235508 | 46 | 360 | 3.5 | 10.4 | 0.00 | 0.00 | 0.00 | 79 | 1014.3 |
| 20260505235008 | 46 | 360 | 3.5 | 7.0 | 0.00 | 0.00 | 0.00 | 79 | 1014.3 |
| 20260505234533 | 46 | 360 | 3.5 | 7.0 | 0.00 | 0.00 | 0.00 | 79 | 1014.3 |
| 20260505234008 | 47 | 360 | 3.5 | 8.7 | 0.00 | 0.00 | 0.00 | 79 | 1014.2 |
| 20260505233512 | 47 | 360 | 3.5 | 8.7 | 0.00 | 0.00 | 0.00 | 78 | 1014.3 |
| 20260505233028 | 47 | 360 | 3.5 | 9.6 | 0.00 | 0.00 | 0.00 | 78 | 1014.3 |
| 20260505232512 | 47 | 360 | 4.3 | 9.6 | 0.00 | 0.00 | 0.00 | 78 | 1014.3 |
| 20260505232011 | 47 | 360 | 3.5 | 11.3 | 0.00 | 0.00 | 0.00 | 77 | 1014.3 |
| 20260505231530 | 47 | 360 | 4.3 | 11.3 | 0.00 | 0.00 | 0.00 | 77 | 1014.3 |
| 20260505231013 | 47 | 360 | 4.3 | 10.4 | 0.00 | 0.00 | 0.00 | 77 | 1014.5 |
| 20260505230508 | 47 | 360 | 3.5 | 10.4 | 0.00 | 0.00 | 0.00 | 77 | 1014.3 |
| 20260505230040 | 47 | 360 | 3.5 | 9.6 | 0.00 | 0.00 | 0.00 | 79 | 1014.4 |
| 20260505225511 | 47 | 360 | 3.5 | 8.7 | 0.00 | 0.00 | 0.00 | 79 | 1014.5 |
| 20260505225015 | 47 | 360 | 3.5 | 13.0 | 0.00 | 0.00 | 0.00 | 79 | 1014.5 |
| 20260505224533 | 48 | 360 | 3.5 | 13.0 | 0.00 | 0.00 | 0.00 | 79 | 1014.4 |
| 20260505224009 | 48 | 360 | 2.6 | 5.2 | 0.00 | 0.00 | 0.00 | 79 | 1014.4 |
| 20260505223512 | 48 | 360 | 1.7 | 5.2 | 0.00 | 0.00 | 0.00 | 79 | 1014.5 |
| 20260505223027 | 48 | 360 | 1.7 | 7.0 | 0.00 | 0.00 | 0.00 | 79 | 1014.4 |
| 20260505222508 | 48 | 360 | 2.6 | 7.0 | 0.00 | 0.00 | 0.00 | 78 | 1014.4 |
| 20260505222010 | 48 | 360 | 2.6 | 8.7 | 0.00 | 0.00 | 0.00 | 78 | 1014.4 |
| 20260505221528 | 48 | 360 | 3.5 | 9.6 | 0.00 | 0.00 | 0.00 | 78 | 1014.4 |
| 20260505221011 | 48 | 360 | 2.6 | 9.6 | 0.00 | 0.00 | 0.00 | 77 | 1014.4 |
| 20260505220510 | 48 | 360 | 3.5 | 9.6 | 0.00 | 0.00 | 0.00 | 77 | 1014.3 |
| 20260505220035 | 48 | 360 | 4.3 | 9.6 | 0.00 | 0.00 | 0.00 | 76 | 1014.2 |
| 20260505215510 | 48 | 360 | 1.7 | 8.7 | 0.00 | 0.00 | 0.00 | 76 | 1014.2 |
| 20260505215008 | 48 | 360 | 4.3 | 9.6 | 0.00 | 0.00 | 0.00 | 76 | 1014.2 |
| 20260505214534 | 49 | 360 | 3.5 | 10.4 | 0.00 | 0.00 | 0.00 | 75 | 1014.3 |
| 20260505214010 | 49 | 360 | 4.3 | 10.4 | 0.00 | 0.00 | 0.00 | 75 | 1014.2 |
| 20260505213513 | 49 | 360 | 4.3 | 9.6 | 0.00 | 0.00 | 0.00 | 75 | 1014.3 |
| 20260505213027 | 49 | 360 | 3.5 | 9.6 | 0.00 | 0.00 | 0.00 | 75 | 1014.3 |
| 20260505212509 | 49 | 360 | 3.5 | 9.6 | 0.00 | 0.00 | 0.00 | 75 | 1014.3 |
| 20260505212009 | 49 | 360 | 2.6 | 8.7 | 0.00 | 0.00 | 0.00 | 78 | 1014.3 |
| 20260505211528 | 49 | 360 | 3.5 | 10.4 | 0.00 | 0.00 | 0.00 | 79 | 1014.3 |
| 20260505211012 | 49 | 360 | 4.3 | 10.4 | 0.00 | 0.00 | 0.00 | 80 | 1014.2 |
| 20260505210510 | 50 | 360 | 3.5 | 8.7 | 0.00 | 0.00 | 0.00 | 80 | 1014.1 |
| 20260505210029 | 50 | 360 | 2.6 | 8.7 | 0.00 | 0.00 | 0.00 | 80 | 1014.0 |
| 20260505205509 | 50 | 360 | 2.6 | 10.4 | 0.00 | 0.00 | 0.00 | 80 | 1014.0 |
| 20260505205012 | 50 | 360 | 2.6 | 10.4 | 0.00 | 0.00 | 0.00 | 80 | 1014.0 |
| 20260505204532 | 50 | 360 | 3.5 | 9.6 | 0.00 | 0.00 | 0.00 | 79 | 1014.0 |
| 20260505204008 | 50 | 360 | 4.3 | 10.4 | 0.00 | 0.00 | 0.00 | 79 | 1013.9 |
| 20260505203508 | 50 | 360 | 4.3 | 10.4 | 0.00 | 0.00 | 0.00 | 79 | 1014.0 |
| 20260505203033 | 50 | 360 | 4.3 | 9.6 | 0.00 | 0.00 | 0.00 | 79 | 1013.9 |
| 20260505202509 | 50 | 360 | 4.3 | 9.6 | 0.00 | 0.00 | 0.00 | 79 | 1013.9 |
| 20260505202009 | 50 | 360 | 2.6 | 7.8 | 0.00 | 0.00 | 0.00 | 79 | 1013.8 |
| 20260505201534 | 50 | 360 | 3.5 | 7.8 | 0.00 | 0.00 | 0.00 | 79 | 1013.8 |
| 20260505201011 | 50 | 360 | 2.6 | 7.8 | 0.00 | 0.00 | 0.00 | 78 | 1013.7 |
| 20260505200509 | 51 | 360 | 3.5 | 7.8 | 0.00 | 0.00 | 0.00 | 78 | 1013.7 |
| 20260505200030 | 51 | 360 | 3.5 | 7.8 | 0.00 | 0.00 | 0.00 | 78 | 1013.7 |
| 20260505195514 | 51 | 360 | 3.5 | 9.6 | 0.00 | 0.00 | 0.00 | 78 | 1013.6 |
| 20260505195009 | 51 | 360 | 2.6 | 9.6 | 0.00 | 0.00 | 0.00 | 77 | 1013.6 |
| 20260505194529 | 51 | 360 | 4.3 | 9.6 | 0.00 | 0.00 | 0.00 | 77 | 1013.5 |
| 20260505194011 | 51 | 360 | 5.2 | 9.6 | 0.00 | 0.00 | 0.00 | 77 | 1013.4 |
| 20260505193509 | 51 | 360 | 4.3 | 9.6 | 0.00 | 0.00 | 0.00 | 77 | 1013.4 |
| 20260505193030 | 51 | 360 | 5.2 | 11.3 | 0.00 | 0.00 | 0.00 | 78 | 1013.4 |
| 20260505192508 | 52 | 360 | 3.5 | 11.3 | 0.00 | 0.00 | 0.00 | 77 | 1013.4 |
| 20260505192007 | 52 | 360 | 3.5 | 10.4 | 0.00 | 0.00 | 0.00 | 76 | 1013.4 |
| 20260505191527 | 53 | 360 | 5.2 | 10.4 | 0.00 | 0.00 | 0.00 | 75 | 1013.2 |
| 20260505191011 | 53 | 360 | 4.3 | 12.2 | 0.00 | 0.00 | 0.00 | 72 | 1013.3 |
| 20260505190512 | 54 | 360 | 5.2 | 12.2 | 0.00 | 0.00 | 0.00 | 69 | 1013.1 |
| 20260505190038 | 54 | 360 | 2.6 | 7.8 | 0.00 | 0.00 | 0.00 | 65 | 1013.1 |
| 20260505185509 | 54 | 360 | 2.6 | 7.8 | 0.00 | 0.00 | 0.00 | 65 | 1013.0 |
| 20260505185012 | 54 | 360 | 1.7 | 7.8 | 0.00 | 0.00 | 0.00 | 65 | 1012.9 |
| 20260505184532 | 54 | 360 | 2.6 | 7.0 | 0.00 | 0.00 | 0.00 | 64 | 1012.9 |
| 20260505184010 | 54 | 360 | 2.6 | 7.0 | 0.00 | 0.00 | 0.00 | 64 | 1012.9 |
| 20260505183510 | 55 | 360 | 1.7 | 7.0 | 0.00 | 0.00 | 0.00 | 64 | 1012.9 |
| 20260505183029 | 55 | 360 | 1.7 | 7.0 | 0.00 | 0.00 | 0.00 | 65 | 1012.9 |
| 20260505182510 | 55 | 360 | 1.7 | 7.0 | 0.00 | 0.00 | 0.00 | 65 | 1012.8 |
| 20260505182011 | 55 | 360 | 2.6 | 7.8 | 0.00 | 0.00 | 0.00 | 64 | 1012.8 |
| 20260505181529 | 55 | 360 | 1.7 | 7.8 | 0.00 | 0.00 | 0.00 | 64 | 1012.8 |
| 20260505181008 | 55 | 360 | 2.6 | 8.7 | 0.00 | 0.00 | 0.00 | 64 | 1012.8 |
| 20260505180510 | 55 | 360 | 2.6 | 9.6 | 0.00 | 0.00 | 0.00 | 63 | 1012.8 |
| 20260505180036 | 55 | 360 | 3.5 | 9.6 | 0.00 | 0.00 | 0.00 | 62 | 1012.8 |
| 20260505175510 | 56 | 360 | 1.7 | 7.8 | 0.00 | 0.00 | 0.00 | 62 | 1012.9 |
| 20260505175008 | 56 | 360 | 1.7 | 5.2 | 0.00 | 0.00 | 0.00 | 62 | 1012.8 |
| 20260505174528 | 56 | 360 | 2.6 | 7.0 | 0.00 | 0.00 | 0.00 | 62 | 1012.8 |
| 20260505174010 | 56 | 360 | 1.7 | 7.8 | 0.00 | 0.00 | 0.00 | 62 | 1012.8 |
| 20260505173511 | 56 | 360 | 2.6 | 7.8 | 0.00 | 0.00 | 0.00 | 61 | 1012.8 |
| 20260505173029 | 56 | 360 | 1.7 | 10.4 | 0.00 | 0.00 | 0.00 | 61 | 1012.8 |
| 20260505172511 | 56 | 360 | 2.6 | 10.4 | 0.00 | 0.00 | 0.00 | 60 | 1012.8 |
| 20260505172009 | 57 | 360 | 2.6 | 7.8 | 0.00 | 0.00 | 0.00 | 60 | 1012.9 |
| 20260505171529 | 57 | 360 | 1.7 | 5.2 | 0.00 | 0.00 | 0.00 | 61 | 1012.8 |
| 20260505171013 | 56 | 360 | 0.9 | 5.2 | 0.00 | 0.00 | 0.00 | 62 | 1012.9 |
| 20260505170510 | 56 | 360 | 1.7 | 7.8 | 0.00 | 0.00 | 0.00 | 63 | 1012.9 |
| 20260505170031 | 56 | 360 | 0.9 | 7.8 | 0.00 | 0.00 | 0.00 | 62 | 1012.9 |
| 20260505165510 | 56 | 360 | 2.6 | 7.8 | 0.00 | 0.00 | 0.00 | 62 | 1012.9 |
| 20260505165008 | 56 | 360 | 2.6 | 7.8 | 0.00 | 0.00 | 0.00 | 62 | 1012.8 |
| 20260505164526 | 56 | 360 | 1.7 | 8.7 | 0.00 | 0.00 | 0.00 | 62 | 1012.8 |
| 20260505164010 | 56 | 360 | 2.6 | 8.7 | 0.00 | 0.00 | 0.00 | 61 | 1012.9 |
| 20260505163509 | 56 | 360 | 3.5 | 8.7 | 0.00 | 0.00 | 0.00 | 60 | 1012.9 |
| 20260505163036 | 56 | 360 | 1.7 | 7.0 | 0.00 | 0.00 | 0.00 | 60 | 1012.8 |
| 20260505162509 | 57 | 360 | 2.6 | 7.0 | 0.00 | 0.00 | 0.00 | 61 | 1012.9 |
| 20260505162013 | 57 | 360 | 2.6 | 5.2 | 0.00 | 0.00 | 0.00 | 61 | 1012.8 |
| 20260505161528 | 57 | 360 | 2.6 | 7.0 | 0.00 | 0.00 | 0.00 | 61 | 1012.8 |
| 20260505161009 | 56 | 360 | 1.7 | 7.0 | 0.00 | 0.00 | 0.00 | 62 | 1012.8 |
| 20260505160510 | 56 | 360 | 2.6 | 7.0 | 0.00 | 0.00 | 0.00 | 61 | 1012.9 |
| 20260505153039 | 56 | 360 | 1.7 | 8.7 | 0.00 | 0.00 | 0.00 | 61 | 1013.1 |
| 20260505152509 | 56 | 360 | 1.7 | 7.0 | 0.00 | 0.00 | 0.00 | 61 | 1013.1 |
| 20260505152013 | 56 | 360 | 2.6 | 7.0 | 0.00 | 0.00 | 0.00 | 61 | 1013.0 |
| 20260505151530 | 56 | 360 | 2.6 | 5.2 | 0.00 | 0.00 | 0.00 | 61 | 1013.0 |
| 20260505151009 | 56 | 360 | 2.6 | 4.3 | 0.00 | 0.00 | 0.00 | 61 | 1013.0 |
| 20260505150511 | 56 | 360 | 1.7 | 7.0 | 0.00 | 0.00 | 0.00 | 61 | 1013.1 |
| 20260505140510 | 57 | 360 | 3.5 | 9.6 | 0.00 | 0.00 | 0.00 | 61 | 1013.1 |
| 20260505125015 | 57 | 360 | 2.6 | 9.6 | 0.00 | 0.00 | 0.00 | 62 | 1013.1 |
| 20260505124530 | 57 | 360 | 4.3 | 9.6 | 0.00 | 0.00 | 0.00 | 61 | 1013.1 |
| 20260505124012 | 57 | 360 | 2.6 | 9.6 | 0.00 | 0.00 | 0.00 | 62 | 1013.1 |
| 20260505123511 | 57 | 360 | 2.6 | 9.6 | 0.00 | 0.00 | 0.00 | 62 | 1013.2 |
| 20260505123028 | 57 | 360 | 2.6 | 7.8 | 0.00 | 0.00 | 0.00 | 62 | 1013.1 |
| 20260505122509 | 57 | 360 | 2.6 | 7.8 | 0.00 | 0.00 | 0.00 | 62 | 1013.1 |
| 20260505122011 | 57 | 360 | 3.5 | 8.7 | 0.00 | 0.00 | 0.00 | 62 | 1013.1 |
| 20260505121532 | 57 | 360 | 2.6 | 8.7 | 0.00 | 0.00 | 0.00 | 62 | 1013.1 |
| 20260505121009 | 57 | 360 | 3.5 | 8.7 | 0.00 | 0.00 | 0.00 | 61 | 1013.2 |
| 20260505120510 | 57 | 360 | 2.6 | 8.7 | 0.00 | 0.00 | 0.00 | 61 | 1013.1 |
| 20260505120040 | 57 | 360 | 2.6 | 8.7 | 0.00 | 0.00 | 0.00 | 61 | 1013.1 |
| 20260505115510 | 57 | 360 | 3.5 | 7.8 | 0.00 | 0.00 | 0.00 | 60 | 1013.1 |
| 20260505115009 | 58 | 360 | 1.7 | 7.8 | 0.00 | 0.00 | 0.00 | 60 | 1013.1 |
| 20260505114529 | 58 | 360 | 2.6 | 8.7 | 0.00 | 0.00 | 0.00 | 58 | 1013.0 |
| 20260505114009 | 59 | 360 | 2.6 | 8.7 | 0.00 | 0.00 | 0.00 | 58 | 1013.1 |
| 20260505113511 | 59 | 360 | 2.6 | 8.7 | 0.00 | 0.00 | 0.00 | 58 | 1013.1 |
| 20260505113028 | 59 | 360 | 2.6 | 8.7 | 0.00 | 0.00 | 0.00 | 59 | 1013.2 |
| 20260505112508 | 58 | 360 | 3.5 | 7.8 | 0.00 | 0.00 | 0.00 | 60 | 1013.1 |
| 20260505112008 | 58 | 360 | 0.9 | 8.7 | 0.00 | 0.00 | 0.00 | 63 | 1013.2 |
| 20260505111532 | 57 | 360 | 2.6 | 9.6 | 0.00 | 0.00 | 0.00 | 63 | 1013.2 |
| 20260505111008 | 57 | 360 | 2.6 | 9.6 | 0.00 | 0.00 | 0.00 | 61 | 1013.2 |
| 20260505110511 | 58 | 360 | 4.3 | 10.4 | 0.00 | 0.00 | 0.00 | 60 | 1013.3 |
| 20260505102010 | 56 | 360 | 2.6 | 7.0 | 0.00 | 0.00 | 0.00 | 64 | 1013.8 |
| 20260505101533 | 56 | 360 | 1.7 | 7.0 | 0.00 | 0.00 | 0.00 | 64 | 1013.8 |
| 20260505101011 | 56 | 360 | 1.7 | 7.0 | 0.00 | 0.00 | 0.00 | 66 | 1013.7 |
| 20260505100513 | 55 | 360 | 2.6 | 7.0 | 0.00 | 0.00 | 0.00 | 64 | 1013.7 |
| 20260505100031 | 56 | 360 | 2.6 | 7.0 | 0.00 | 0.00 | 0.00 | 66 | 1013.7 |
| 20260505095509 | 55 | 360 | 0.9 | 5.2 | 0.00 | 0.00 | 0.00 | 68 | 1013.7 |
| 20260505095009 | 55 | 360 | 1.7 | 5.2 | 0.00 | 0.00 | 0.00 | 68 | 1013.8 |
| 20260505094530 | 55 | 360 | 1.7 | 4.3 | 0.00 | 0.00 | 0.00 | 68 | 1013.7 |
| 20260505094012 | 55 | 360 | 0.9 | 5.2 | 0.00 | 0.00 | 0.00 | 68 | 1013.8 |
| 20260505093507 | 55 | 360 | 1.7 | 7.0 | 0.00 | 0.00 | 0.00 | 68 | 1013.9 |
| 20260505093030 | 55 | 360 | 1.7 | 7.0 | 0.00 | 0.00 | 0.00 | 69 | 1013.8 |
| 20260505092513 | 55 | 360 | 1.7 | 7.0 | 0.00 | 0.00 | 0.00 | 69 | 1013.8 |
| 20260505092010 | 55 | 360 | 1.7 | 7.8 | 0.00 | 0.00 | 0.00 | 69 | 1013.8 |
| 20260505091532 | 55 | 360 | 1.7 | 7.8 | 0.00 | 0.00 | 0.00 | 71 | 1013.8 |
| 20260505091009 | 55 | 360 | 2.6 | 7.8 | 0.00 | 0.00 | 0.00 | 71 | 1013.6 |
| 20260505090510 | 54 | 360 | 1.7 | 7.8 | 0.00 | 0.00 | 0.00 | 72 | 1013.7 |
| 20260505090031 | 54 | 360 | 2.6 | 8.7 | 0.00 | 0.00 | 0.00 | 72 | 1013.8 |
| 20260505085510 | 54 | 360 | 2.6 | 8.7 | 0.00 | 0.00 | 0.00 | 73 | 1013.8 |
| 20260505085009 | 54 | 360 | 1.7 | 8.7 | 0.00 | 0.00 | 0.00 | 73 | 1013.8 |
| 20260505084543 | 54 | 360 | 1.7 | 7.8 | 0.00 | 0.00 | 0.00 | 73 | 1013.9 |
| 20260505084012 | 54 | 360 | 3.5 | 7.8 | 0.00 | 0.00 | 0.00 | 71 | 1013.9 |
| 20260505083509 | 55 | 360 | 0.9 | 5.2 | 0.00 | 0.00 | 0.00 | 72 | 1013.8 |
| 20260505083043 | 54 | 360 | 1.7 | 7.0 | 0.00 | 0.00 | 0.00 | 72 | 1013.9 |
| 20260505082512 | 54 | 360 | 2.6 | 8.7 | 0.00 | 0.00 | 0.00 | 71 | 1013.9 |
| 20260505082013 | 54 | 360 | 1.7 | 8.7 | 0.00 | 0.00 | 0.00 | 72 | 1013.9 |
| 20260505081537 | 53 | 360 | 3.5 | 7.8 | 0.00 | 0.00 | 0.00 | 71 | 1013.8 |
| 20260505081015 | 53 | 360 | 1.7 | 7.8 | 0.00 | 0.00 | 0.00 | 72 | 1013.9 |
| 20260505080512 | 53 | 360 | 2.6 | 9.6 | 0.00 | 0.00 | 0.00 | 73 | 1013.9 |
| 20260505080040 | 52 | 360 | 3.5 | 9.6 | 0.00 | 0.00 | 0.00 | 74 | 1013.9 |
| 20260505075509 | 52 | 360 | 1.7 | 7.0 | 0.00 | 0.00 | 0.00 | 73 | 1013.9 |
| 20260505075011 | 52 | 360 | 2.6 | 7.0 | 0.00 | 0.00 | 0.00 | 73 | 1014.0 |
| 20260505074529 | 52 | 360 | 2.6 | 7.0 | 0.00 | 0.00 | 0.00 | 73 | 1013.9 |
| 20260505074012 | 52 | 360 | 0.9 | 7.0 | 0.00 | 0.00 | 0.00 | 74 | 1013.9 |
| 20260505073512 | 52 | 360 | 2.6 | 7.0 | 0.00 | 0.00 | 0.00 | 75 | 1013.8 |
| 20260505073040 | 52 | 360 | 2.6 | 7.0 | 0.00 | 0.00 | 0.00 | 76 | 1013.8 |
| 20260505072513 | 51 | 360 | 2.6 | 7.0 | 0.00 | 0.00 | 0.00 | 77 | 1013.8 |
| 20260505072011 | 50 | 360 | 2.6 | 7.0 | 0.00 | 0.00 | 0.00 | 78 | 1013.8 |
| 20260505071542 | 50 | 360 | 1.7 | 7.8 | 0.00 | 0.00 | 0.00 | 79 | 1013.9 |
| 20260505071011 | 50 | 360 | 2.6 | 7.8 | 0.00 | 0.00 | 0.00 | 79 | 1013.9 |
| 20260505070515 | 50 | 360 | 1.7 | 5.2 | 0.00 | 0.00 | 0.00 | 80 | 1013.9 |
| 20260505070039 | 50 | 360 | 1.7 | 5.2 | 0.00 | 0.00 | 0.00 | 81 | 1014.2 |
| 20260505065510 | 49 | 360 | 1.7 | 7.0 | 0.00 | 0.00 | 0.00 | 82 | 1014.0 |
| 20260505065011 | 49 | 17 | 0.9 | 7.0 | 0.00 | 0.00 | 0.00 | 81 | 1014.1 |
| 20260505064534 | 50 | 360 | 1.7 | 7.0 | 0.00 | 0.00 | 0.00 | 81 | 1014.0 |
| 20260505064011 | 49 | 360 | 1.7 | 5.2 | 0.00 | 0.00 | 0.00 | 82 | 1014.0 |
| 20260505063509 | 49 | 360 | 1.7 | 7.0 | 0.00 | 0.00 | 0.00 | 83 | 1014.0 |
| 20260505063036 | 49 | 360 | 1.7 | 7.0 | 0.00 | 0.00 | 0.00 | 83 | 1014.1 |
| 20260505062512 | 49 | 0 | 1.7 | 5.2 | 0.00 | 0.00 | 0.00 | 84 | 1014.0 |
| 20260505062013 | 48 | 360 | 1.7 | 5.2 | 0.00 | 0.00 | 0.00 | 84 | 1014.1 |
| 20260505061531 | 48 | 360 | 1.7 | 5.2 | 0.00 | 0.00 | 0.00 | 84 | 1014.0 |
| 20260505061010 | 48 | 360 | 0.9 | 5.2 | 0.00 | 0.00 | 0.00 | 85 | 1014.0 |
| 20260505060514 | 48 | 360 | 1.7 | 5.2 | 0.00 | 0.00 | 0.00 | 85 | 1013.9 |
| 20260505060050 | 47 | 0 | 0.9 | 5.2 | 0.00 | 0.00 | 0.00 | 86 | 1013.9 |
| 20260505055513 | 47 | 360 | 0.9 | 5.2 | 0.00 | 0.00 | 0.00 | 86 | 1013.9 |
| 20260505055014 | 47 | 360 | 1.7 | 5.2 | 0.00 | 0.00 | 0.00 | 86 | 1014.0 |
| 20260505054531 | 46 | 360 | 0.9 | 5.2 | 0.00 | 0.00 | 0.00 | 87 | 1014.0 |
| 20260505054015 | 46 | 360 | 0.9 | 5.2 | 0.00 | 0.00 | 0.00 | 87 | 1013.8 |
| 20260505053514 | 46 | 360 | 1.7 | 5.2 | 0.00 | 0.00 | 0.00 | 87 | 1013.9 |
| 20260505053029 | 46 | 360 | 1.7 | 4.3 | 0.00 | 0.00 | 0.00 | 87 | 1014.0 |
| 20260505052509 | 46 | 360 | 1.7 | 4.3 | 0.00 | 0.00 | 0.00 | 87 | 1014.0 |
| 20260505052011 | 46 | 360 | 1.7 | 4.3 | 0.00 | 0.00 | 0.00 | 87 | 1014.0 |
| 20260505051528 | 46 | 360 | 0.9 | 7.0 | 0.00 | 0.00 | 0.00 | 86 | 1013.9 |
| 20260505051010 | 46 | 360 | 1.7 | 7.0 | 0.00 | 0.00 | 0.00 | 86 | 1014.0 |
| 20260505050510 | 46 | 360 | 2.6 | 5.2 | 0.00 | 0.00 | 0.00 | 86 | 1013.9 |
| 20260505041537 | 46 | 360 | 0.9 | 4.3 | 0.00 | 0.00 | 0.00 | 86 | 1013.7 |
| 20260505041012 | 45 | 360 | 0.9 | 4.3 | 0.00 | 0.00 | 0.00 | 87 | 1013.7 |
| 20260505040517 | 45 | 360 | 1.7 | 4.3 | 0.00 | 0.00 | 0.00 | 87 | 1013.7 |
| 20260505040027 | 45 | 360 | 1.7 | 4.3 | 0.00 | 0.00 | 0.00 | 87 | 1013.6 |
| 20260505035510 | 45 | 360 | 0.9 | 4.3 | 0.00 | 0.00 | 0.00 | 86 | 1013.7 |
| 20260505035015 | 45 | 360 | 0.9 | 7.8 | 0.00 | 0.00 | 0.00 | 86 | 1013.6 |
| 20260505034528 | 45 | 360 | 1.7 | 7.8 | 0.00 | 0.00 | 0.00 | 86 | 1013.6 |
| 20260505034013 | 45 | 360 | 0.9 | 4.3 | 0.00 | 0.00 | 0.00 | 86 | 1013.6 |
| 20260505033510 | 45 | 0 | 0.9 | 3.5 | 0.00 | 0.00 | 0.00 | 86 | 1013.7 |
| 20260505033026 | 46 | 360 | 0.0 | 3.5 | 0.00 | 0.00 | 0.00 | 86 | 1013.8 |
| 20260505032511 | 46 | 360 | 0.9 | 3.5 | 0.00 | 0.00 | 0.00 | 86 | 1013.7 |
| 20260505032013 | 46 | 360 | 0.9 | 7.0 | 0.00 | 0.00 | 0.00 | 86 | 1013.9 |